STARLINK-3059 (49181 NORAD) Tracking and Keplerian Element Data

This shows tracking and keplerian element data for the satellite.

Feedback or suggestion? Click here.




ElementValue
Catalog49181
NameSTARLINK-3059
Epoch Orbit813
Epoch Day300.83334491
Epoch Year2021
RAAN3.9157
Inclination69.9998
Eccentricity0.0004113
Argument of Perigee294.9991
Mean Anonmoly120.4149
Mean Motion15.6995689
Decay Rate-0.006331
L11 49181U 21082BD 21300.83334491 -.00633100 00000-0 -56618-2 0 9990
L22 49181 69.9998 3.9157 0004113 294.9991 120.4149 15.69956890 8133

Live tracking and technical data element details for STARLINK-3059 (NORAD 49181). STARLINK-3059 can be tracked NOW for your location showing map with azimuth and elevation plus other details from your city location.

Track the satellite on the map from your city or location and see movement details for azimuth, elevation, latitude, longitude, range, height, and movement on the map or in text.







IsCatalogInMostPopularTable: catalog: 49181, numindb: 24
Update: records affected: 1



GetName: 49181 STARLINK-3059

Hit Count: updated at: Thu, 28 Oct 2021 11:35:03 GMT